Location: Bacharowice
(49.9333°N, 19.5833°E)
Time: 01:56:23
(UTC+00:00)

USA 307 - Pass Details

Date: 11 May 2021
Orbit: 566 x 577 km, 54.0° (Epoch: 10 May)

Event Time Altitude Azimuth Distance (km) Brightness Sun altitude
Rises 21:09:27 0° 293° (WNW) 2,779 7.1 -19.2°
Reaches altitude 10° 21:11:57 10° 281° (W) 1,880 5.9 -19.3°
Maximum altitude 21:15:34 27° 223° (SW) 1,116 4.1 -19.6°
Enters shadow 21:15:37 27° 222° (SW) 1,116 4.1 -19.6°
